Weather History for Murray, KY

Change the Weather History Date:

Friday, January 18, 2013

  Actual Average (KPAH) Record (KPAH)
Temperature  
Mean Temperature 34 °F 34 °F  
Max Temperature 46 °F 43 °F 69 °F (1974)
Min Temperature 23 °F 26 °F -14 °F (1994)
Degree Days  
Heating Degree Days 30 31  
Month to date heating degree days 555  
Since 1 July heating degree days 2186  
Cooling Degree Days 0 0  
Month to date cooling degree days 0  
Year to date cooling degree days 0  
Moisture  
Dew Point 24 °F    
Average Humidity 66    
Maximum Humidity 93    
Minimum Humidity 40    
Precipitation  
Precipitation 0.00 in 0.11 in 1.38 in (1986)
Month to date precipitation 2.12  
Year to date precipitation 2.12  
Snow  
Snow 0.00 in 0.10 in 4.00 in (1956)
Month to date snowfall 1.6  
Since 1 July snowfall 3.9  
Snow Depth -    
Sea Level Pressure  
Sea Level Pressure 30.45 in    
Wind  
Wind Speed 5 mph (SSW)    
Max Wind Speed 12 mph    
Max Gust Speed 17 mph    
Visibility 10 miles    
Events      
T = Trace of Precipitation, MM = Missing Value Source: NWS Daily Summary

Daily Weather History Graph

Daily Weather History Graph

Search for Another Location

Airport:

Trip Planner

Search our weather history database for the weather conditions in past years. The results will help you decide how hot, cold, wet, or windy it might be!

Date:

Astronomy

Jan. 18, 2013 Rise Set
Actual Time 7:03 AM CST 5:04 PM CST
Civil Twilight 6:35 AM CST 5:32 PM CST
Nautical Twilight 6:04 AM CST 6:04 PM CST
Astronomical Twilight 5:33 AM CST 6:35 PM CST
Moon 10:55 AM CST (1/18) No Moon Set
Length of Visible Light 10h 56m
Length of Day
10h 00m
Waxing Crescent, 47% of the Moon is Illuminated
Jan 18
Waxing Crescent
Jan 18
First Quarter
Jan 26
Full
Feb 3
Last Quarter
Feb 10
New

Hourly Weather History & Observations

Time (CST) Temp. Windchill Dew Point Humidity Pressure Visibility Wind Dir Wind Speed Gust Speed Precip Events Conditions
12:15 AM 28.4 °F 21.2 °F 24.8 °F 86% 30.49 in 10.0 mi NNW 6.9 mph - N/A   Clear
12:35 AM 28.4 °F 21.2 °F 24.8 °F 86% 30.49 in 10.0 mi North 6.9 mph - N/A   Clear
12:55 AM 28.4 °F 22.2 °F 24.8 °F 86% 30.49 in 10.0 mi North 5.8 mph - N/A   Clear
1:15 AM 28.4 °F 21.2 °F 24.8 °F 86% 30.50 in 10.0 mi North 6.9 mph - N/A   Clear
1:35 AM 28.4 °F 22.2 °F 23.0 °F 80% 30.50 in 10.0 mi North 5.8 mph - N/A   Clear
1:55 AM 28.4 °F 24.6 °F 23.0 °F 80% 30.50 in 10.0 mi North 3.5 mph - N/A   Clear
2:15 AM 26.6 °F 22.6 °F 23.0 °F 86% 30.50 in 10.0 mi North 3.5 mph - N/A   Clear
2:35 AM 26.6 °F - 23.0 °F 86% 30.50 in 10.0 mi Calm Calm - N/A   Clear
2:55 AM 24.8 °F - 23.0 °F 93% 30.50 in 10.0 mi Calm Calm - N/A   Clear
3:15 AM 26.6 °F 21.2 °F 23.0 °F 86% 30.49 in 10.0 mi NNE 4.6 mph - N/A   Clear
3:35 AM 26.6 °F 21.2 °F 23.0 °F 86% 30.49 in 10.0 mi NNE 4.6 mph - N/A   Clear
3:55 AM 26.6 °F - 23.0 °F 86% 30.50 in 10.0 mi Calm Calm - N/A   Clear
4:15 AM 24.8 °F - 21.2 °F 86% 30.50 in 10.0 mi Calm Calm - N/A   Clear
4:35 AM 24.8 °F - 23.0 °F 93% 30.50 in 10.0 mi Calm Calm - N/A   Clear
4:55 AM 24.8 °F 17.9 °F 21.2 °F 86% 30.51 in 10.0 mi WSW 5.8 mph - N/A   Clear
5:15 AM 23.0 °F 13.9 °F 21.2 °F 93% 30.52 in 10.0 mi WSW 8.1 mph - N/A   Clear
5:35 AM 24.8 °F 19.1 °F 21.2 °F 86% 30.52 in 10.0 mi West 4.6 mph - N/A   Clear
5:55 AM 23.0 °F 18.4 °F 21.2 °F 93% 30.52 in 10.0 mi NW 3.5 mph - N/A   Clear
6:15 AM 23.0 °F - 21.2 °F 93% 30.53 in 10.0 mi Calm Calm - N/A   Clear
6:35 AM 23.0 °F - 21.2 °F 93% 30.53 in 10.0 mi Calm Calm - N/A   Clear
6:55 AM 23.0 °F - 21.2 °F 93% 30.53 in 8.0 mi Calm Calm - N/A   Clear
7:15 AM 23.0 °F 18.4 °F 21.2 °F 93% 30.53 in 9.0 mi NW 3.5 mph - N/A   Clear
7:35 AM 23.0 °F - 21.2 °F 93% 30.53 in 7.0 mi Calm Calm - N/A   Clear
7:55 AM 24.8 °F - 23.0 °F 93% 30.54 in 9.0 mi Calm Calm - N/A   Clear
8:15 AM 28.4 °F - 24.8 °F 86% 30.55 in 10.0 mi Calm Calm - N/A   Clear
8:35 AM 30.2 °F - 24.8 °F 80% 30.56 in 10.0 mi Calm Calm - N/A   Clear
8:55 AM 32.0 °F - 24.8 °F 75% 30.57 in 10.0 mi Calm Calm - N/A   Clear
9:15 AM 32.0 °F 27.5 °F 24.8 °F 75% 30.57 in 10.0 mi South 4.6 mph - N/A   Clear
9:55 AM 32.0 °F 26.4 °F 24.8 °F 75% 30.57 in 10.0 mi SE 5.8 mph - N/A   Clear
10:15 AM 35.6 °F 29.2 °F 24.8 °F 65% 30.56 in 10.0 mi SSE 8.1 mph - N/A   Clear
10:35 AM 35.6 °F 29.2 °F 24.8 °F 65% 30.55 in 10.0 mi SSE 8.1 mph - N/A   Clear
10:55 AM 37.4 °F 32.8 °F 26.6 °F 65% 30.54 in 10.0 mi South 5.8 mph - N/A   Clear
11:15 AM 37.4 °F 31.4 °F 24.8 °F 60% 30.54 in 10.0 mi South 8.1 mph - N/A   Clear
11:35 AM 39.2 °F 34.2 °F 26.6 °F 61% 30.52 in 10.0 mi SSW 6.9 mph - N/A   Clear
11:55 AM 41.0 °F 39.0 °F 26.6 °F 57% 30.51 in 10.0 mi SW 3.5 mph - N/A   Clear
12:15 PM 41.0 °F 36.4 °F 26.6 °F 57% 30.50 in 10.0 mi SW 6.9 mph - N/A   Clear
12:35 PM 41.0 °F 35.2 °F 24.8 °F 53% 30.48 in 10.0 mi South 9.2 mph - N/A   Clear
12:55 PM 42.8 °F 37.5 °F 26.6 °F 53% 30.47 in 10.0 mi SW 9.2 mph - N/A   Clear
1:15 PM 44.6 °F 40.2 °F 26.6 °F 49% 30.46 in 10.0 mi SW 8.1 mph - N/A   Clear
1:35 PM 44.6 °F 40.7 °F 26.6 °F 49% 30.45 in 10.0 mi SSW 6.9 mph - N/A   Clear
1:55 PM 46.4 °F 41.1 °F 26.6 °F 46% 30.45 in 10.0 mi South 11.5 mph 16.1 mph N/A   Clear
2:15 PM 46.4 °F 41.1 °F 24.8 °F 43% 30.44 in 10.0 mi SSW 11.5 mph - N/A   Clear
2:35 PM 46.4 °F 41.1 °F 24.8 °F 43% 30.43 in 10.0 mi SW 11.5 mph - N/A   Clear
2:55 PM 46.4 °F 41.9 °F 24.8 °F 43% 30.43 in 10.0 mi SW 9.2 mph - N/A   Clear
3:15 PM 46.4 °F 41.5 °F 24.8 °F 43% 30.42 in 10.0 mi SSW 10.4 mph 17.3 mph N/A   Clear
3:35 PM 46.4 °F 41.1 °F 24.8 °F 43% 30.41 in 10.0 mi South 11.5 mph - N/A   Clear
3:55 PM 46.4 °F 41.1 °F 23.0 °F 40% 30.40 in 10.0 mi SSW 11.5 mph - N/A   Clear
4:15 PM 46.4 °F 42.4 °F 24.8 °F 43% 30.39 in 10.0 mi South 8.1 mph 17.3 mph N/A   Clear
4:35 PM 46.4 °F 42.4 °F 24.8 °F 43% 30.39 in 10.0 mi South 8.1 mph - N/A   Clear
4:55 PM 44.6 °F 40.7 °F 24.8 °F 46% 30.39 in 10.0 mi South 6.9 mph - N/A   Clear
5:15 PM 42.8 °F 41.1 °F 24.8 °F 49% 30.39 in 10.0 mi South 3.5 mph - N/A   Clear
5:35 PM 41.0 °F 37.1 °F 23.0 °F 49% 30.38 in 10.0 mi South 5.8 mph - N/A   Clear
5:55 PM 41.0 °F 37.1 °F 23.0 °F 49% 30.38 in 10.0 mi South 5.8 mph - N/A   Clear
6:15 PM 41.0 °F 37.1 °F 23.0 °F 49% 30.38 in 10.0 mi South 5.8 mph - N/A   Clear
6:35 PM 39.2 °F 34.2 °F 23.0 °F 52% 30.38 in 10.0 mi South 6.9 mph - N/A   Clear
6:55 PM 41.0 °F 36.4 °F 23.0 °F 49% 30.37 in 10.0 mi South 6.9 mph - N/A   Clear
7:15 PM 41.0 °F 35.2 °F 23.0 °F 49% 30.37 in 10.0 mi South 9.2 mph - N/A   Clear
7:35 PM 41.0 °F 35.8 °F 24.8 °F 53% 30.37 in 10.0 mi South 8.1 mph - N/A   Clear
7:55 PM 39.2 °F 33.6 °F 24.8 °F 56% 30.37 in 10.0 mi South 8.1 mph - N/A   Clear
8:15 PM 39.2 °F 33.0 °F 24.8 °F 56% 30.36 in 10.0 mi South 9.2 mph - N/A   Clear
8:35 PM 39.2 °F 34.2 °F 24.8 °F 56% 30.36 in 10.0 mi South 6.9 mph - N/A   Clear
8:55 PM 39.2 °F 34.2 °F 24.8 °F 56% 30.36 in 10.0 mi SSW 6.9 mph - N/A   Clear
9:15 PM 39.2 °F 33.6 °F 24.8 °F 56% 30.36 in 10.0 mi South 8.1 mph - N/A   Clear
9:35 PM 39.2 °F 33.6 °F 24.8 °F 56% 30.35 in 10.0 mi South 8.1 mph - N/A   Clear
9:55 PM 39.2 °F 33.6 °F 24.8 °F 56% 30.35 in 10.0 mi SSW 8.1 mph - N/A   Clear
10:15 PM 39.2 °F 33.0 °F 24.8 °F 56% 30.34 in 10.0 mi SSW 9.2 mph - N/A   Clear
10:35 PM 39.2 °F 33.6 °F 24.8 °F 56% 30.33 in 10.0 mi South 8.1 mph - N/A   Clear
10:55 PM 39.2 °F 33.6 °F 24.8 °F 56% 30.32 in 10.0 mi South 8.1 mph - N/A   Clear
11:15 PM 39.2 °F 33.0 °F 24.8 °F 56% 30.32 in 10.0 mi South 9.2 mph 16.1 mph N/A   Clear
11:35 PM 39.2 °F 33.0 °F 24.8 °F 56% 30.32 in 10.0 mi South 9.2 mph - N/A   Clear
11:55 PM 39.2 °F 33.0 °F 24.8 °F 56% 30.31 in 10.0 mi South 9.2 mph 16.1 mph N/A   Clear